Weather History for Lamoni, IA

Change the Weather History Date:

Monday, September 10, 2012

  Actual Average Record
Temperature  
Mean Temperature 65 °F 68 °F  
Max Temperature 78 °F 78 °F 96 °F (2013)
Min Temperature 51 °F 57 °F 42 °F (1976)
Degree Days  
Heating Degree Days 0 2  
Month to date heating degree days 7 11  
Since 1 July heating degree days 8 19  
Cooling Degree Days 0 4  
Month to date cooling degree days 60 51  
Year to date cooling degree days 1271 889  
Growing Degree Days 15 (Base 50)    
Moisture  
Dew Point 49 °F    
Average Humidity 60    
Maximum Humidity 83    
Minimum Humidity 36    
Precipitation  
Precipitation 0.00 in 0.11 in 0.68 in (1984)
Month to date precipitation 0.11 1.51  
Sea Level Pressure  
Sea Level Pressure 30.10 in    
Wind  
Wind Speed 9 mph (South)    
Max Wind Speed 17 mph    
Max Gust Speed 25 mph    
Visibility 10 miles    
Events      
T = Trace of Precipitation, MM = Missing Value Source: NWS Daily Summary

Daily Weather History Graph

Daily Weather History Graph

Search for Another Location

Airport:

Trip Planner

Search our weather history database for the weather conditions in past years. The results will help you decide how hot, cold, wet, or windy it might be!

Date:

Astronomy

Sep. 10, 2012 Rise Set
Actual Time 6:51 AM CDT 7:32 PM CDT
Civil Twilight 6:24 AM CDT 7:59 PM CDT
Nautical Twilight 5:51 AM CDT 8:32 PM CDT
Astronomical Twilight 5:17 AM CDT 9:05 PM CDT
Moon 1:12 AM CDT (9/10) 4:03 PM CDT (9/10)
Length of Visible Light 13h 35m
Length of Day
12h 40m
Waning Crescent, 30% of the Moon is Illuminated
Sep 10
Waning Crescent
Sep 15
New
Sep 22
First Quarter
Sep 29
Full
Oct 8
Last Quarter

Hourly Weather History & Observations

Time (CDT) Temp. Dew Point Humidity Pressure Visibility Wind Dir Wind Speed Gust Speed Precip Events Conditions
12:53 AM 60.1 °F 46.0 °F 60% 30.16 in 10.0 mi South 4.6 mph - N/A   Clear
1:53 AM 60.1 °F 46.0 °F 60% 30.15 in 10.0 mi SSE 4.6 mph - N/A   Clear
2:53 AM 57.0 °F 46.9 °F 69% 30.15 in 10.0 mi SSE 5.8 mph - N/A   Clear
3:53 AM 54.0 °F 46.9 °F 77% 30.15 in 10.0 mi South 6.9 mph - 0.01 in   Clear
4:53 AM 55.0 °F 46.9 °F 74% 30.15 in 10.0 mi SSE 5.8 mph - N/A   Clear
5:53 AM 54.0 °F 46.9 °F 77% 30.16 in 10.0 mi SSE 4.6 mph - N/A   Clear
6:53 AM 53.1 °F 46.9 °F 80% 30.17 in 10.0 mi SSE 6.9 mph - N/A   Clear
7:53 AM 54.0 °F 48.0 °F 80% 30.18 in 10.0 mi South 5.8 mph - 0.01 in   Clear
8:53 AM 59.0 °F 51.1 °F 75% 30.17 in 10.0 mi SSE 6.9 mph - N/A   Clear
9:53 AM 64.9 °F 52.0 °F 63% 30.18 in 10.0 mi South 8.1 mph - N/A   Clear
10:53 AM 69.1 °F 51.1 °F 53% 30.17 in 10.0 mi South 15.0 mph 21.9 mph N/A   Clear
11:53 AM 73.0 °F 52.0 °F 48% 30.14 in 10.0 mi South 11.5 mph 21.9 mph N/A   Clear
12:53 PM 73.0 °F 50.0 °F 44% 30.12 in 10.0 mi South 11.5 mph 20.7 mph N/A   Clear
2:53 PM 75.9 °F 50.0 °F 40% 30.06 in 10.0 mi South 12.7 mph 23.0 mph N/A   Clear
3:53 PM 77.0 °F 48.9 °F 37% 30.05 in 10.0 mi South 17.3 mph 24.2 mph N/A   Clear
4:53 PM 77.0 °F 50.0 °F 39% 30.03 in 10.0 mi South 16.1 mph 25.3 mph N/A   Clear
5:53 PM 75.9 °F 51.1 °F 42% 30.02 in 10.0 mi South 12.7 mph 20.7 mph N/A   Clear
6:53 PM 73.9 °F 51.1 °F 45% 30.01 in 10.0 mi South 9.2 mph - N/A   Clear
7:53 PM 69.1 °F 51.1 °F 53% 30.01 in 10.0 mi South 8.1 mph - N/A   Clear
8:53 PM 66.0 °F 50.0 °F 56% 30.01 in 10.0 mi South 9.2 mph - 0.02 in   Clear
9:53 PM 64.9 °F 51.1 °F 61% 30.01 in 10.0 mi South 8.1 mph - 0.01 in   Clear
10:53 PM 63.0 °F 51.1 °F 65% 30.01 in 10.0 mi South 8.1 mph - N/A   Clear
11:53 PM 61.0 °F 51.1 °F 70% 30.01 in 10.0 mi South 6.9 mph - N/A   Clear